Regional Weather Roundup
Issued by NWS Bismarck, ND

Home | Current Version | Previous Version | Text Only | Print | Product List | Glossary On
Versions: 1 2 3 4 5 6 7 8 9 10 11 12 13 14 15 16 17 18 19 20 21 22 23 24 25 26 27 28 29 30 31 32 33 34 35 36 37 38 39 40 41 42 43 44 45 46 47 48 49 50
000
ASUS43 KBIS 020220
RWRBIS

NWR BROADCAST TEXT
NATIONAL WEATHER SERVICE BISMARCK ND
900 PM CDT MON SEP 01 2014

NOTE: "FAIR" INDICATES FEW OR NO CLOUDS BELOW 12,000 FEET WITH NO
SIGNIFICANT WEATHER AND/OR OBSTRUCTIONS TO VISIBILITY.


CITY           SKY/WX    TMP DP  RH WIND       PRES   REMARKS
WILLISTON      PTCLDY    60  49  66 SW5       29.82S
MINOT          PTCLDY    63  44  50 SW7       29.79R
MINOT AFB      PTCLDY    57  49  73 W8        29.78S
BISMARCK       PTCLDY    65  50  58 SW5       29.85R
DICKINSON      CLEAR     55  48  77 SW8       29.87R
GARRISON         N/A     57  51  80 SW6       29.82R
HETTINGER ARPT CLEAR     56  48  74 S3        29.91R
JAMESTOWN      CLEAR     60  51  72 CALM      29.81R
BEACH            N/A     55  46  71 W8        29.89S
CARRINGTON     FAIR      55  52  88 W6        29.83R
CROSBY         FAIR      52  48  87 W5        29.81R
HARVEY         FAIR      55  48  76 SW7       29.81R
HAZEN          FAIR      57  46  67 SW6       29.84S
LINTON         FAIR      54  52  94 SW3       29.86R
MANDAN         FAIR      59  52  77 SW5       29.86R
OAKES            N/A     63  57  82 W7        29.82R
RUGBY          FAIR      55  50  82 SW8       29.78R
STANLEY        FAIR      55  50  82 W7        29.82S
TIOGA          FAIR      55  46  71 W8        29.85S
WATFORD CITY   FAIR      55  48  76 SW6       29.82S
$$

CITY           SKY/WX    TMP DP  RH WIND       PRES   REMARKS
GRAND FORKS    PTCLDY    60  56  86 SW3       29.74R
GRAND FORKS AF PTCLDY    62  55  80 W6        29.76R
DEVILS LAKE    CLEAR     57  48  72 W3        29.77R
FARGO          CLEAR     61  56  83 SE6       29.78R
CANDO          FAIR      55  50  82 W5        29.77S
CAVALIER       FAIR      61  50  67 W9        29.73R
GRAFTON        FAIR      59  54  82 SW7       29.73R
GWINNER        CLEAR     61  55  82 W7        29.84R
LANGDON        FAIR      54  48  82 SW9       29.76R
ROLLA          FAIR      54  52  94 W8        29.78R
WALHALLA         N/A     63  48  59 W5        29.73R
$$

CITY           SKY/WX    TMP DP  RH WIND       PRES   REMARKS
ABERDEEN       MOCLDY    61  56  83 W6        29.84R
MOBRIDGE       CLOUDY    62  53  72 W17G25    29.87R
BUFFALO          N/A     61  46  57 E3        29.87R
RAPID CITY     PTCLDY    54  50  86 CALM      29.97R
GLASGOW        CLOUDY    62  49  62 SE7       29.81F
SIDNEY         PTCLDY    61  46  59 SW8       29.86R
WOLF POINT     PTCLDY    58  52  80 S3        29.83F
GLENDIVE       PTCLDY    55  46  71 W3        29.89R
MILES CITY     MOCLDY    65  39  38 W7        29.89R
BAKER          PTCLDY    58  47  66 SW5       29.91R
$$

CITY           SKY/WX    TMP DP  RH WIND       PRES   REMARKS
BILLINGS       PTCLDY    65  37  35 NW5       29.94R
GREAT FALLS    CLEAR     61  36  39 W8        29.90S
REGINA         PTCLDY    59  48  67 SW3       29.76S
ESTEVAN        PTCLDY    55  48  76 N5        29.80R
$$



USA.gov is the U.S. government's official web portal to all federal, state and local government web resources and services.